• In Hungary
  • List of Countries
  • For 7 days
  • Water Temperature
  • Satellite Maps
  • Weather Map
  • News
  • Weather Widgets
  • user-avatar
    Login

    Hourly Weather Lyubakovo

    Today, 16 August, Thursday

    Time Temperature Precipitation Wind Pressure Humidity
    00:00 +16°C° 0 mm 1 mps 752 mmHg 98%
    01:00 +16°C° 0 mm 1 mps 753 mmHg 98%
    02:00 +15°C° 0 mm 1 mps 753 mmHg 98%
    03:00 +15°C° 0 mm 1 mps 753 mmHg 98%
    04:00 +15°C° 0 mm 1 mps 754 mmHg 97%
    05:00 +15°C° 0 mm 1 mps 754 mmHg 97%
    06:00 +16°C° 0 mm 1 mps 755 mmHg 95%
    07:00 +16°C° 0 mm 1 mps 755 mmHg 93%
    08:00 +18°C° 0 mm 1 mps 756 mmHg 90%
    09:00 +19°C° 0 mm 1 mps 756 mmHg 85%
    10:00 +19°C° 0 mm 1 mps 756 mmHg 80%
    11:00 +20°C° 0 mm 1 mps 756 mmHg 75%
    12:00 +21°C° 0 mm 1 mps 757 mmHg 71%
    13:00 +22°C° 0 mm 1 mps 757 mmHg 67%
    14:00 +23°C° 0 mm 1 mps 757 mmHg 63%
    15:00 +23°C° 0 mm 1 mps 757 mmHg 63%
    16:00 +23°C° 0 mm 1 mps 757 mmHg 63%
    17:00 +23°C° 0 mm 1 mps 757 mmHg 62%
    18:00 +21°C° 0 mm 1 mps 758 mmHg 70%
    19:00 +19°C° 0 mm 1 mps 758 mmHg 78%
    20:00 +16°C° 0 mm 1 mps 758 mmHg 86%
    21:00 +15°C° 0 mm 0 mps 758 mmHg 88%
    22:00 +14°C° 0 mm 0 mps 759 mmHg 90%
    23:00 +14°C° 0 mm 0 mps 759 mmHg 92%

    Tomorrow, 17 August, Friday

    Time Temperature Precipitation Wind Pressure Humidity
    00:00 +13°C° 0 mm 0 mps 759 mmHg 92%
    01:00 +14°C° 0 mm 1 mps 759 mmHg 93%
    02:00 +14°C° 0 mm 1 mps 759 mmHg 94%
    03:00 +14°C° 0 mm 1 mps 760 mmHg 94%
    04:00 +13°C° 0 mm 1 mps 760 mmHg 94%
    05:00 +13°C° 0 mm 1 mps 760 mmHg 94%
    06:00 +15°C° 0 mm 1 mps 760 mmHg 87%
    07:00 +18°C° 0 mm 1 mps 760 mmHg 79%
    08:00 +20°C° 0 mm 1 mps 760 mmHg 72%
    09:00 +21°C° 0 mm 2 mps 760 mmHg 65%
    10:00 +23°C° 0 mm 2 mps 760 mmHg 59%
    11:00 +25°C° 0 mm 2 mps 760 mmHg 52%
    12:00 +25°C° 0 mm 2 mps 760 mmHg 50%
    13:00 +26°C° 0 mm 2 mps 759 mmHg 48%
    14:00 +26°C° 0 mm 2 mps 759 mmHg 46%
    15:00 +26°C° 0 mm 2 mps 759 mmHg 50%
    16:00 +26°C° 0 mm 2 mps 759 mmHg 54%
    17:00 +26°C° 0 mm 1 mps 758 mmHg 57%
    18:00 +24°C° 0 mm 1 mps 758 mmHg 64%
    19:00 +20°C° 0 mm 2 mps 758 mmHg 70%
    20:00 +18°C° 0 mm 2 mps 759 mmHg 77%
    21:00 +18°C° 0 mm 2 mps 759 mmHg 79%
    22:00 +17°C° 0 mm 2 mps 759 mmHg 81%
    23:00 +16°C° 0 mm 2 mps 759 mmHg 82%

    Day after tomorrow, 18 August, Saturday

    Time Temperature Precipitation Wind Pressure Humidity
    00:00 +16°C° 0 mm 2 mps 759 mmHg 84%
    01:00 +15°C° 0 mm 2 mps 759 mmHg 86%
    02:00 +15°C° 0 mm 2 mps 759 mmHg 88%
    03:00 +15°C° 0 mm 2 mps 759 mmHg 89%
    04:00 +14°C° 0 mm 2 mps 759 mmHg 91%
    05:00 +14°C° 0 mm 2 mps 759 mmHg 92%
    06:00 +16°C° 0 mm 2 mps 759 mmHg 85%
    07:00 +18°C° 0 mm 2 mps 759 mmHg 79%
    08:00 +20°C° 0 mm 2 mps 759 mmHg 72%
    09:00 +21°C° 0 mm 2 mps 759 mmHg 66%
    10:00 +24°C° 0 mm 3 mps 759 mmHg 60%
    11:00 +26°C° 0 mm 3 mps 758 mmHg 54%
    12:00 +26°C° 0 mm 3 mps 758 mmHg 52%
    13:00 +27°C° 0 mm 3 mps 758 mmHg 50%
    14:00 +28°C° 0 mm 3 mps 757 mmHg 47%
    15:00 +27°C° 0 mm 2 mps 757 mmHg 51%
    16:00 +27°C° 0 mm 2 mps 757 mmHg 55%
    17:00 +27°C° 0 mm 2 mps 757 mmHg 58%
    18:00 +25°C° 0 mm 2 mps 757 mmHg 65%
    19:00 +23°C° 0 mm 2 mps 757 mmHg 71%
    20:00 +20°C° 0 mm 2 mps 757 mmHg 78%
    21:00 +19°C° 0 mm 2 mps 757 mmHg 80%
    22:00 +19°C° 0 mm 2 mps 757 mmHg 83%
    23:00 +18°C° 0 mm 2 mps 757 mmHg 85%

    19 August, Sunday

    Time Temperature Precipitation Wind Pressure Humidity
    00:00 +18°C° 0 mm 2 mps 757 mmHg 86%
    01:00 +18°C° 0 mm 2 mps 756 mmHg 86%
    02:00 +17°C° 0 mm 2 mps 756 mmHg 86%
    03:00 +17°C° 0 mm 2 mps 756 mmHg 86%
    04:00 +17°C° 0 mm 2 mps 756 mmHg 86%
    05:00 +17°C° 0 mm 2 mps 756 mmHg 85%
    06:00 +18°C° 0.1 mm 2 mps 755 mmHg 85%
    07:00 +18°C° 0.1 mm 3 mps 755 mmHg 85%
    08:00 +19°C° 0.1 mm 3 mps 755 mmHg 86%
    09:00 +20°C° 0.1 mm 3 mps 755 mmHg 84%
    10:00 +21°C° 0.1 mm 3 mps 755 mmHg 83%
    11:00 +22°C° 0.1 mm 3 mps 754 mmHg 81%
    12:00 +22°C° 0.6 mm 3 mps 754 mmHg 82%
    13:00 +24°C° 0.6 mm 3 mps 754 mmHg 82%
    14:00 +24°C° 0.6 mm 3 mps 753 mmHg 83%
    15:00 +24°C° 0.7 mm 3 mps 753 mmHg 84%
    16:00 +22°C° 0.7 mm 3 mps 753 mmHg 86%
    17:00 +23°C° 0.7 mm 2 mps 753 mmHg 87%
    18:00 +21°C° 0.4 mm 2 mps 753 mmHg 90%
    19:00 +20°C° 0.4 mm 2 mps 753 mmHg 92%
    20:00 +19°C° 0.4 mm 1 mps 754 mmHg 95%
    21:00 +19°C° 0 mm 1 mps 754 mmHg 95%
    22:00 +18°C° 0 mm 1 mps 754 mmHg 96%
    23:00 +18°C° 0 mm 1 mps 754 mmHg 96%

    20 August, Monday

    Time Temperature Precipitation Wind Pressure Humidity
    00:00 +18°C° 0.3 mm 1 mps 754 mmHg 97%
    01:00 +18°C° 0.3 mm 1 mps 754 mmHg 97%
    02:00 +16°C° 0.3 mm 1 mps 754 mmHg 98%
    03:00 +16°C° 0.3 mm 1 mps 754 mmHg 98%
    04:00 +16°C° 0.3 mm 1 mps 755 mmHg 98%
    05:00 +16°C° 0.3 mm 1 mps 755 mmHg 98%
    06:00 +18°C° 0.1 mm 1 mps 755 mmHg 97%
    07:00 +18°C° 0.1 mm 1 mps 755 mmHg 95%
    08:00 +19°C° 0.1 mm 1 mps 755 mmHg 93%
    09:00 +20°C° 0 mm 1 mps 755 mmHg 85%
    10:00 +20°C° 0 mm 2 mps 755 mmHg 77%
    11:00 +21°C° 0 mm 2 mps 755 mmHg 69%
    12:00 +23°C° 0 mm 2 mps 755 mmHg 63%
    13:00 +24°C° 0 mm 2 mps 755 mmHg 56%
    14:00 +24°C° 0 mm 2 mps 755 mmHg 49%
    15:00 +24°C° 0 mm 2 mps 755 mmHg 52%
    16:00 +24°C° 0 mm 1 mps 755 mmHg 54%
    17:00 +23°C° 0 mm 1 mps 755 mmHg 57%
    18:00 +21°C° 0 mm 1 mps 755 mmHg 62%
    19:00 +19°C° 0 mm 1 mps 755 mmHg 68%
    20:00 +16°C° 0 mm 1 mps 755 mmHg 74%
    21:00 +14°C° 0 mm 0 mps 755 mmHg 76%
    22:00 +14°C° 0 mm 0 mps 755 mmHg 78%
    23:00 +13°C° 0 mm 0 mps 755 mmHg 79%

    21 August, Tuesday

    Time Temperature Precipitation Wind Pressure Humidity
    00:00 +13°C° 0 mm 0 mps 755 mmHg 80%
    01:00 +14°C° 0 mm 1 mps 755 mmHg 82%
    02:00 +13°C° 0 mm 1 mps 755 mmHg 83%
    03:00 +13°C° 0 mm 1 mps 755 mmHg 84%
    04:00 +13°C° 0 mm 1 mps 755 mmHg 86%
    05:00 +13°C° 0 mm 1 mps 755 mmHg 87%
    06:00 +15°C° 0 mm 1 mps 755 mmHg 82%
    07:00 +17°C° 0 mm 2 mps 755 mmHg 77%
    08:00 +18°C° 0 mm 2 mps 755 mmHg 72%
    09:00 +20°C° 0 mm 2 mps 755 mmHg 69%
    10:00 +21°C° 0 mm 3 mps 754 mmHg 65%
    11:00 +22°C° 0 mm 3 mps 754 mmHg 62%
    12:00 +22°C° 0 mm 3 mps 754 mmHg 65%
    13:00 +22°C° 0 mm 4 mps 754 mmHg 67%
    14:00 +22°C° 0 mm 4 mps 753 mmHg 70%
    15:00 +23°C° 0.1 mm 4 mps 753 mmHg 72%
    16:00 +24°C° 0.1 mm 3 mps 753 mmHg 75%
    17:00 +24°C° 0.1 mm 3 mps 752 mmHg 77%
    18:00 +22°C° 0.4 mm 3 mps 752 mmHg 83%
    19:00 +21°C° 0.4 mm 3 mps 752 mmHg 88%
    20:00 +19°C° 0.4 mm 3 mps 752 mmHg 94%
    21:00 +19°C° 0.1 mm 3 mps 752 mmHg 95%
    22:00 +19°C° 0.1 mm 3 mps 752 mmHg 95%
    23:00 +18°C° 0.1 mm 3 mps 752 mmHg 96%
    Show more